Home   Weather   Astana   Past weeks

Flag for Kazakhstan Past Weather in Astana, Kazakhstan — Yesterday and Last 2 Weeks

Now
28 °F

More clouds than sun.


Feels Like: 15 °F
Forecast: 18 / 29 °F
Wind: 22 mph from Southwest

Location: Astana

Current Time: Feb 26, 2017 at 1:41:07 pm

Latest Report: Feb 26, 2017 at 1:00 pm


Visibility: N/A

Pressure: 30.24 "Hg

Humidity: 93%

Dew Point: 27 °F

Location of AstanaLocation

Past Weather in Astana — Graph

°F

Astana Temperature Yesterday

Maximum temperature yesterday: 32 °F (at 1:00 pm)
Minimum temperature yesterday: 14 °F (at 12:00 am)
Average temperature yesterday: 25 °F

High & Low Weather Summary for the Past Weeks

 TemperatureHumidityPressure
High32 °F (Feb 25, 1:00 pm)100% (Feb 25, 7:30 am)30.60 "Hg (Feb 25, 7:30 am)
Low-29 °F (Feb 12, 6:30 am)59% (Feb 12, 2:30 pm)29.77 "Hg (Feb 17, 1:30 am)
Average6 °F78%30.22 "Hg
* Reported Feb 11 12:00 pm — Feb 26 12:00 pm, Astana, Weather by CustomWeather, © 2017

Note: Actual official high and low records may vary slightly from our data, if they occured in-between our weather recording intervals... More about our weather records

Advertising

Astana Weather History for the Previous 24 Hours

Scroll right to see more
 ConditionsComfort  
Time TempWeatherWind HumidityBarometerVisibility
12:00 pm
Sun, Feb 26
28 °FMore clouds than sun.22 mph86%30.24 "HgN/A
11:30 am28 °FMore clouds than sun.24 mph86%30.24 "Hg5 mi
11:00 am28 °FBroken clouds.22 mph86%30.24 "HgN/A
10:30 am27 °FBroken clouds.22 mph86%30.24 "HgN/A
10:00 am27 °FBroken clouds.22 mph86%30.24 "HgN/A
9:30 am27 °FBroken clouds.17 mph86%30.24 "HgN/A
9:00 am25 °FPartly cloudy.15 mph93%30.24 "HgN/A
8:30 am27 °FOvercast.13 mph86%30.24 "HgN/A
8:00 am25 °FMostly cloudy.13 mph93%30.24 "HgN/A
7:30 am25 °FMostly cloudy.15 mph93%30.24 "HgN/A
7:00 am25 °FMostly cloudy.15 mph93%30.21 "HgN/A
6:30 am25 °FMostly cloudy.15 mph93%30.21 "HgN/A
6:00 am25 °FMostly cloudy.17 mph93%30.21 "HgN/A
5:30 am27 °FMostly cloudy.15 mph86%30.21 "HgN/A
5:00 am27 °FMostly cloudy.15 mph93%30.21 "HgN/A
4:30 am27 °FMostly cloudy.15 mph93%30.18 "HgN/A
4:00 am27 °FMostly cloudy.15 mph93%30.18 "HgN/A
3:30 am27 °FMostly cloudy.10 mph93%30.18 "HgN/A
3:00 am27 °FMostly cloudy.10 mph93%30.18 "HgN/A
2:30 am27 °FMostly cloudy.8 mph93%30.15 "HgN/A
2:00 am28 °FMostly cloudy.10 mph86%30.15 "HgN/A
1:30 am28 °FMostly cloudy.10 mph93%30.15 "HgN/A
1:00 am28 °FMostly cloudy.10 mph93%30.15 "Hg6 mi
12:30 am28 °FIce fog.10 mph93%30.15 "Hg3 mi
12:00 am28 °FIce fog.13 mph100%30.15 "Hg3 mi
11:30 pm
Sat, Feb 25
28 °FIce fog.10 mph93%30.15 "Hg1 mi
11:00 pm28 °FIce fog.10 mph93%30.12 "Hg2 mi
10:30 pm28 °FIce fog.8 mph93%30.12 "Hg2 mi
10:00 pm28 °FIce fog.8 mph93%30.12 "Hg3 mi
9:30 pm28 °FLow clouds.8 mph93%30.12 "Hg4 mi
9:00 pm27 °FLow clouds.8 mph93%30.12 "Hg4 mi
8:30 pm27 °FLow clouds.6 mph93%30.09 "Hg6 mi
8:00 pm27 °FLow clouds.8 mph93%30.09 "Hg5 mi
7:30 pm27 °FOvercast.8 mph93%30.09 "Hg4 mi
7:00 pm27 °FOvercast.10 mph93%30.09 "Hg6 mi
6:30 pm27 °FPartly sunny.10 mph86%30.09 "HgN/A
5:30 pm28 °FSunny.8 mph80%30.07 "Hg10 mi
5:00 pm30 °FSunny.10 mph75%30.07 "Hg10 mi
4:30 pm30 °FClear.13 mph75%30.07 "Hg6 mi
4:00 pm30 °FClear.15 mph80%30.07 "Hg6 mi
3:30 pm30 °FClear.13 mph80%30.04 "Hg6 mi
3:00 pm32 °FClear.13 mph75%30.04 "Hg5 mi
2:30 pm32 °FClear.10 mph80%30.04 "Hg6 mi
2:00 pm32 °FClear.13 mph80%30.04 "Hg6 mi
1:30 pm32 °FClear.13 mph80%30.04 "Hg6 mi
1:00 pm32 °FClear.10 mph87%30.04 "Hg4 mi
Weather by CustomWeather, © 2017

See weather overviewHow to use our weather pages